Location: Essen
(51.4609°N, 7.0127°E)
Time: 07:46:58
(UTC+01:00)

N. Korean satellite - Visible Passes

Search period start: 17 January 2018 00:00
Search period end: 27 January 2018 00:00
Orbit: 459 x 515 km, 97.2° (Epoch: 16 January)

Date Brightness Start Highest point End Pass type
(mag) Time Alt. Az. Time Alt. Az. Time Alt. Az.
17 Jan 10.1 06:08:34 10° ENE 06:09:30 11° E 06:10:25 10° ESE visible
17 Jan 6.4 07:40:01 10° N 07:43:28 68° WNW 07:46:53 10° SSW visible
17 Jan 6.6 18:20:54 10° S 18:24:31 81° WSW 18:28:07 10° NNW visible
18 Jan 7.0 07:16:21 10° NNE 07:19:48 63° ESE 07:23:13 10° S visible
18 Jan 6.6 17:57:22 10° SSE 18:00:53 54° ENE 18:04:23 10° N visible
18 Jan 9.9 19:32:42 10° SW 19:34:43 14° W 19:36:43 10° NW visible
19 Jan 8.4 06:52:52 10° NNE 06:56:03 33° E 06:59:12 10° SSE visible
19 Jan 7.3 17:34:08 10° SE 17:37:19 30° ENE 17:40:29 10° N visible
19 Jan 9.0 19:07:52 10° SSW 19:10:52 24° W 19:13:50 10° NW visible
20 Jan 9.5 06:29:42 10° NE 06:32:13 19° E 06:34:44 10° SE visible
20 Jan 7.8 18:43:38 10° S 18:47:05 43° W 18:50:29 10° NNW visible
21 Jan 10.2 06:07:32 10° ENE 06:08:19 11° E 06:09:06 10° E visible
21 Jan 6.4 07:38:50 10° N 07:42:18 69° WNW 07:45:43 10° SSW visible
21 Jan 6.6 18:19:47 10° SSE 18:23:22 82° WSW 18:26:55 10° NNW visible
22 Jan 7.1 07:15:10 10° NNE 07:18:37 61° E 07:22:02 10° S visible
22 Jan 6.6 17:56:15 10° SSE 17:59:43 52° ENE 18:03:10 10° N visible
22 Jan 9.9 19:31:33 10° SW 19:33:33 14° W 19:35:33 10° NW visible
23 Jan 8.5 06:51:42 10° NNE 06:54:51 32° E 06:58:00 10° SSE visible
23 Jan 9.0 19:06:43 10° SSW 19:09:41 24° W 19:12:38 10° NW visible
24 Jan 9.6 06:28:32 10° NE 06:31:01 18° E 06:33:30 10° SE visible
24 Jan 7.8 18:42:28 10° S 18:45:53 44° W 18:49:17 10° NNW visible
25 Jan 10.3 06:06:28 10° ENE 06:07:07 10° E 06:07:45 10° E visible
25 Jan 6.4 07:37:38 10° N 07:41:05 71° WNW 07:44:32 10° SSW visible
25 Jan 6.5 18:18:37 10° SSE 18:22:10 84° WSW 18:25:41 10° NNW visible
26 Jan 7.1 07:13:57 10° NNE 07:17:24 60° E 07:20:50 10° S visible
26 Jan 6.6 17:55:05 10° SSE 17:58:31 51° ENE 18:01:56 10° N visible
26 Jan 9.9 19:30:20 10° SW 19:32:20 14° W 19:34:19 10° NW visible
